Theta_e
355 356 356 356 356 355 354 353 351 350 349 349 349 348 347 346 346 347 346 347 347 344 339 335 333 335 337 337 336 335 336 338 341 347 350 349 349 350 350 349 348 347 346 345 345 347 346 344 344 344 344 344 345 345 345 346 346 348 349 348 349 349 346
355 356 357 356 356 355 354 354 352 350 350 350 350 349 348 347 347 347 347 348 349 346 341 336 332 333 337 339 338 337 336 338 339 343 349 351 349 349 347 345 345 346 347 345 346 348 347 344 345 345 344 344 345 345 345 346 345 347 348 347 348 347 345
354 355 356 357 357 355 355 355 354 351 350 351 351 350 349 348 347 348 348 349 350 350 346 340 334 332 335 338 339 338 337 337 337 339 345 350 350 347 344 343 343 344 347 348 347 348 349 347 347 347 344 342 345 345 345 346 345 346 348 346 346 346 344
352 353 355 357 357 355 356 356 355 352 350 350 351 351 350 349 348 348 349 349 350 349 349 346 339 333 333 335 338 338 337 338 338 337 341 346 347 347 345 343 342 343 346 349 348 349 350 350 349 349 345 342 343 344 345 345 344 345 345 344 344 345 345
350 350 353 356 357 355 356 356 354 352 351 351 351 350 351 350 350 349 349 350 349 346 346 347 346 342 337 335 336 337 336 338 338 337 338 341 344 347 347 344 343 342 344 349 350 351 352 351 350 347 345 344 343 343 345 345 344 345 345 344 344 344 344
349 350 352 354 354 355 356 355 354 353 352 351 350 351 351 351 350 349 348 349 349 347 344 344 346 346 344 340 336 336 336 336 338 338 338 339 340 344 345 344 345 344 343 347 352 353 352 353 350 345 343 345 344 342 344 344 344 345 345 345 345 344 344
346 349 351 352 353 353 355 355 355 354 353 352 351 352 352 351 351 350 349 349 350 349 347 344 344 346 347 345 341 338 336 333 335 337 338 340 340 341 343 346 347 345 344 347 351 354 354 353 353 348 344 343 343 342 341 342 344 345 345 344 345 346 343
343 345 347 350 351 352 355 356 355 354 354 354 353 353 353 353 352 351 350 350 350 351 349 346 345 347 348 349 348 344 340 336 335 335 337 340 344 345 345 347 348 347 347 347 348 351 353 354 354 352 347 342 341 341 341 340 341 343 344 344 345 345 344
340 342 343 346 348 349 353 356 355 354 354 354 354 353 353 353 352 351 351 350 351 352 352 349 346 347 349 353 354 352 350 348 344 339 335 337 345 350 349 347 347 347 347 348 348 347 348 351 354 354 350 345 342 342 342 342 342 343 343 343 344 345 344
338 340 342 345 347 347 350 353 355 354 354 354 353 353 353 352 352 351 351 351 353 355 356 353 351 351 353 355 357 356 356 356 355 350 343 339 343 349 350 349 348 347 345 347 348 347 345 346 349 350 349 347 345 344 345 345 345 345 343 342 342 343 343
337 338 340 342 344 345 349 352 353 354 353 353 352 352 352 352 352 352 352 353 355 356 357 356 355 356 355 354 355 357 356 356 356 356 353 348 347 350 350 349 349 348 346 346 346 348 347 346 346 346 346 346 345 345 347 348 347 346 345 343 341 341 343
336 337 338 339 339 341 344 347 350 352 352 352 352 353 353 352 352 352 352 354 355 355 354 354 354 356 355 352 353 355 356 355 354 355 355 352 351 351 351 349 349 348 347 346 345 346 348 347 346 346 345 343 342 343 345 348 348 346 345 344 341 340 340
334 335 336 337 337 337 339 342 345 348 349 350 352 352 353 353 353 352 352 353 354 353 352 352 352 353 353 353 353 354 355 354 354 354 355 353 352 351 350 349 349 349 348 348 346 345 346 347 347 346 344 342 341 340 342 345 346 345 343 341 341 339 338
334 334 334 335 336 336 337 339 340 343 345 346 348 350 351 352 352 352 352 352 352 352 352 352 351 351 351 353 354 355 354 354 353 352 352 352 352 351 349 348 349 349 348 348 347 345 344 346 347 347 346 344 342 340 340 341 342 342 341 339 337 337 337
332 332 333 334 334 334 335 336 337 339 341 343 345 346 349 349 350 350 350 351 352 352 352 352 351 350 350 351 352 354 354 353 352 350 349 349 350 349 348 347 347 347 348 348 347 345 343 344 345 346 346 345 344 343 341 340 338 337 336 336 335 334 334
330 330 331 332 332 332 332 332 333 334 337 339 341 343 345 346 346 347 347 348 349 350 351 352 352 352 351 351 350 351 352 353 352 350 349 349 348 347 347 347 346 346 347 348 348 346 345 343 344 345 345 345 345 344 343 342 340 336 333 332 331 332 333
328 328 329 329 329 329 330 330 330 331 332 333 335 338 341 342 342 343 344 345 346 347 348 350 352 352 352 352 351 350 351 352 352 352 352 352 349 347 347 346 346 346 347 348 347 347 346 345 344 344 345 345 344 344 344 344 343 341 338 334 331 330 331
328 328 327 327 327 327 327 327 327 328 329 329 330 332 335 337 340 341 342 343 344 345 347 349 350 350 350 351 352 352 351 351 352 352 352 352 351 349 348 347 346 347 348 349 347 346 346 346 346 345 345 346 346 346 345 344 343 343 343 341 338 336 334
327 327 327 326 326 326 325 325 324 325 325 326 328 330 331 334 337 339 340 340 340 342 344 346 347 346 347 348 350 352 352 352 352 352 352 352 352 351 350 349 348 348 349 350 349 348 346 345 346 345 345 346 347 348 348 347 346 345 345 345 345 343 342
326 326 325 325 325 325 325 325 324 323 323 323 325 328 330 331 332 335 336 334 332 333 339 343 344 344 344 345 347 349 351 351 351 351 351 352 351 351 351 350 350 349 350 351 351 350 348 346 345 345 345 345 345 347 348 349 349 349 348 348 348 347 346
325 325 324 324 324 324 324 324 324 324 323 322 323 325 326 327 329 331 333 333 330 328 331 335 339 342 344 344 344 345 348 349 350 350 351 352 351 351 351 351 351 351 351 352 353 352 351 349 347 345 345 345 344 345 346 347 348 350 351 351 351 350 349
324 324 324 323 322 323 324 324 324 324 323 322 323 322 322 324 327 329 331 334 332 327 324 325 328 334 340 343 344 344 345 345 346 348 349 351 351 351 351 352 352 352 352 353 353 353 352 352 350 349 348 347 346 346 346 345 346 349 350 351 351 351 351
323 323 323 322 320 321 322 322 323 323 322 322 323 323 323 323 325 326 327 329 329 326 323 319 319 324 329 333 337 340 343 344 345 345 346 347 348 349 350 350 350 350 351 352 352 352 352 351 351 350 350 350 349 349 349 349 349 348 347 347 347 348 350
322 322 322 322 320 319 321 322 322 322 322 321 322 323 324 323 322 323 325 326 326 325 323 318 316 316 318 320 323 327 332 336 339 340 343 344 346 346 346 347 348 348 348 349 350 350 350 350 351 350 350 350 350 351 351 351 350 350 349 348 347 346 347
321 321 321 321 319 319 320 321 321 321 321 320 321 322 323 323 322 320 322 324 325 325 324 320 316 315 314 314 314 316 320 323 326 329 333 337 342 345 346 346 346 346 347 348 349 350 350 350 351 351 351 351 351 351 351 351 350 349 349 350 351 351 351
319 320 319 319 319 319 320 320 320 320 320 319 320 321 321 322 321 319 318 320 321 322 323 319 316 314 314 313 313 314 314 316 319 321 323 326 332 338 342 344 346 347 347 348 349 350 350 350 350 351 351 352 352 352 352 352 350 348 348 350 353 354 354
319 319 319 318 319 319 319 319 318 318 319 319 320 320 320 321 320 318 317 318 319 321 321 318 315 314 314 313 313 314 313 314 315 316 318 318 321 325 329 333 338 341 344 345 347 348 348 349 349 350 350 351 353 353 353 352 351 350 350 352 353 353 352
319 318 318 319 319 318 318 318 316 316 318 319 320 320 320 319 318 317 319 320 320 320 318 315 312 312 313 313 314 314 313 314 313 314 315 315 316 318 321 323 327 331 334 335 337 340 342 344 345 346 346 348 349 350 351 352 352 352 352 352 353 353 352
318 317 318 319 319 318 317 315 315 317 319 319 319 319 319 318 318 318 320 321 320 317 314 313 314 314 313 312 312 312 312 313 313 313 314 314 314 315 317 319 321 324 325 324 325 328 331 334 336 338 339 341 342 344 345 347 347 349 350 351 351 351 351
317 317 318 319 319 317 315 313 315 318 319 319 318 318 317 317 317 318 319 319 316 313 314 317 319 319 316 312 310 310 311 311 312 312 313 314 314 314 314 316 317 318 319 320 322 324 325 327 330 333 335 337 339 340 342 343 344 345 347 349 350 351 352
317 317 318 319 318 315 313 314 317 318 318 317 316 315 314 313 313 314 315 313 310 314 319 321 319 317 314 311 309 309 310 310 311 311 311 312 312 312 312 313 314 316 318 321 325 331 334 333 335 339 340 341 343 345 346 346 347 347 347 348 349 351 352
318 316 316 316 315 313 312 314 315 316 315 314 312 310 310 309 309 311 311 307 310 318 322 319 315 312 310 309 308 308 309 310 311 311 312 313 315 316 315 315 318 322 324 326 331 338 341 341 340 342 343 344 346 346 342 339 340 343 346 349 351 352 352
318 316 315 314 314 313 313 313 313 313 312 312 310 310 309 308 309 311 312 311 313 317 317 314 312 310 308 307 307 309 312 315 316 318 319 320 321 322 322 324 326 326 327 330 334 338 340 341 340 340 340 341 340 336 328 323 323 326 332 339 344 348 349
317 316 315 315 315 315 314 313 313 312 311 312 312 312 311 311 312 314 315 315 316 316 315 314 314 313 310 309 308 309 315 320 321 322 323 323 323 323 324 326 327 327 327 328 331 333 334 335 335 335 333 329 326 321 317 315 315 315 317 322 327 332 337
316 316 316 316 315 314 313 312 312 312 313 314 314 313 312 311 312 313 314 314 314 315 314 314 314 313 311 310 310 312 316 318 318 319 321 322 322 322 323 325 327 328 328 328 329 330 330 330 329 327 324 319 315 314 314 314 315 316 315 315 316 318 321
315 315 316 315 314 313 312 312 313 314 314 314 313 313 312 311 311 312 312 311 311 312 312 313 314 314 313 313 314 316 316 314 312 312 313 314 313 313 313 316 320 324 326 327 328 328 328 327 326 323 320 316 314 316 318 317 315 315 315 314 315 315 316
315 315 315 313 312 312 313 313 314 314 313 313 312 312 312 312 312 312 312 311 311 312 313 314 314 315 315 315 315 316 316 314 312 311 310 309 308 307 306 307 308 311 314 317 318 318 318 319 319 319 318 317 317 318 318 316 317 319 318 316 315 314 314
315 314 313 312 312 313 313 313 313 312 312 312 311 311 311 311 312 312 312 313 313 314 314 314 314 314 314 314 314 314 315 315 316 315 314 313 312 312 311 310 309 308 307 307 308 309 311 313 314 316 317 318 319 319 318 320 325 326 322 318 317 315 314
Wind_Speed
23 25 25 26 28 29 28 27 27 32 35 33 29 29 30 29 30 30 27 25 25 24 26 26 23 22 22 21 21 20 20 20 21 22 19 18 18 17 16 15 12 11 10 10 10 9 10 11 10 10 10 10 10 11 10 10 11 12 12 13 12 10 10
22 24 25 26 27 28 28 27 27 29 34 34 29 28 30 30 31 32 29 26 25 24 26 27 24 23 22 21 21 21 21 21 21 22 21 20 19 18 16 16 15 13 12 11 10 10 10 11 11 11 11 10 10 11 10 11 12 12 12 13 11 10 11
22 23 24 24 26 28 29 27 27 28 32 34 31 28 29 28 29 32 31 27 26 25 26 27 25 23 22 22 22 21 21 22 21 21 22 22 20 18 16 15 15 14 12 11 11 11 11 11 11 12 12 11 11 10 11 11 11 11 12 12 10 10 11
15 19 21 22 23 25 24 23 23 25 29 32 32 29 28 27 27 31 31 27 24 24 25 27 25 23 22 22 23 22 22 22 22 21 21 22 20 19 17 15 15 15 13 12 12 11 11 12 12 13 13 12 12 11 11 11 11 11 11 12 11 10 11
7 10 15 18 19 18 17 19 20 21 25 29 30 31 29 26 26 29 30 27 24 22 24 26 27 25 23 22 23 23 23 22 22 21 21 21 20 20 19 17 16 16 14 14 13 12 12 12 13 14 13 12 13 12 12 11 12 12 11 12 12 11 11
14 12 9 13 16 15 16 19 20 20 23 27 30 31 31 28 27 30 30 28 26 23 23 26 26 26 25 24 23 23 23 23 23 21 21 20 20 20 20 18 17 17 16 15 15 15 14 13 13 13 13 14 13 13 13 13 13 12 12 12 12 12 12
19 16 9 9 11 13 15 17 18 20 22 26 29 30 29 28 27 29 29 27 27 25 24 25 25 25 25 25 24 24 23 24 23 22 21 20 20 19 19 19 18 17 17 16 16 17 16 15 14 14 14 15 14 14 13 14 14 13 13 13 12 12 13
22 21 14 6 4 7 12 13 15 19 20 22 25 25 25 26 26 29 29 28 28 28 26 25 25 25 25 24 24 23 22 22 22 23 22 20 20 19 18 19 18 17 18 18 18 18 18 18 17 16 15 16 16 15 14 14 14 15 14 14 13 13 13
19 19 15 8 7 8 11 11 14 18 19 19 20 21 23 24 24 26 28 28 29 29 28 26 26 26 25 24 24 23 22 20 19 22 23 22 21 21 19 19 19 18 18 19 18 18 18 20 20 18 16 16 16 16 15 15 15 15 15 15 15 14 13
15 15 13 8 7 10 13 14 14 17 17 17 15 17 20 23 22 23 25 27 29 30 30 28 28 29 28 27 26 24 23 22 20 21 23 23 23 22 21 20 20 20 19 19 19 18 18 19 20 19 18 17 17 17 16 16 16 15 15 15 15 15 15
13 13 13 12 12 12 16 18 18 17 16 16 14 13 14 18 20 20 21 23 23 24 26 27 28 29 28 27 27 27 25 25 24 23 24 24 24 23 22 21 21 21 20 20 20 20 19 19 19 19 19 19 18 18 17 17 17 17 16 16 16 15 15
13 14 13 14 15 16 17 19 19 18 18 17 16 15 14 15 16 17 18 20 20 18 17 19 22 24 25 25 26 28 28 28 27 25 24 25 25 24 23 22 21 21 20 20 21 21 21 20 19 19 19 19 19 19 19 19 19 18 17 16 16 16 16
15 16 14 12 12 15 18 19 19 19 18 18 18 17 17 16 14 13 13 15 17 16 13 12 15 19 22 25 27 27 28 28 28 27 26 25 25 25 24 23 22 22 21 20 20 22 23 22 21 20 19 19 19 19 19 20 21 21 20 18 17 17 17
16 17 16 14 12 13 14 15 17 18 17 17 18 17 16 16 15 14 13 12 12 13 12 11 12 15 17 20 25 28 27 27 28 28 27 24 24 25 24 21 22 23 24 23 21 20 22 25 24 22 20 19 18 18 18 20 22 22 22 21 19 18 18
16 16 16 17 16 15 14 13 12 12 13 14 15 16 16 16 15 15 14 13 11 10 11 12 11 11 13 16 20 24 26 26 28 29 27 25 23 25 24 21 21 23 23 25 26 22 19 23 25 24 23 21 20 19 18 19 20 22 23 22 21 20 19
15 15 14 15 17 17 17 17 15 13 10 9 9 10 12 12 11 11 11 12 11 10 10 13 14 10 7 11 16 20 23 24 26 26 26 25 23 23 23 22 22 22 21 22 27 28 23 22 24 26 25 24 22 21 20 20 19 20 21 22 21 21 20
16 15 14 15 16 16 18 18 18 18 16 13 10 7 7 7 7 6 7 8 9 8 8 11 16 15 9 8 11 16 20 20 21 23 23 24 24 24 24 23 23 23 21 19 23 29 28 25 25 26 26 25 25 24 22 21 21 20 20 21 22 22 22
17 16 15 15 16 16 17 18 19 18 18 17 15 12 9 9 9 9 8 7 5 4 5 9 13 14 12 9 8 11 14 15 17 19 22 24 25 25 25 25 25 25 23 19 19 24 28 28 27 27 26 24 25 26 25 23 21 21 21 21 21 23 23
19 17 17 16 16 15 16 16 17 18 17 16 17 18 17 15 16 16 15 13 10 5 3 7 8 9 10 10 10 10 10 10 11 14 17 20 22 23 24 25 26 27 25 23 20 21 26 28 28 28 27 25 23 25 27 26 24 23 22 21 20 21 22
19 18 17 16 16 15 14 13 13 15 17 16 16 17 17 17 18 20 19 17 16 14 10 5 6 7 7 9 12 14 13 11 11 12 15 16 17 19 20 22 26 28 27 26 24 23 25 27 28 29 28 27 25 24 24 24 23 23 23 22 21 21 22
17 17 17 17 16 15 14 13 12 14 16 16 15 14 14 14 17 19 18 17 17 18 19 15 8 3 5 9 12 13 13 15 14 13 14 15 16 17 18 19 23 26 28 28 28 27 26 27 28 29 29 29 29 28 27 25 22 20 19 19 20 22 25
16 15 14 14 15 15 15 15 14 13 13 14 14 14 14 15 17 19 17 15 15 18 21 21 17 12 8 6 8 8 8 11 14 13 14 16 18 18 19 19 20 23 26 27 28 28 27 27 27 28 29 29 30 30 31 30 28 26 24 22 21 21 22
16 15 15 13 12 15 16 16 14 10 10 13 14 12 13 13 15 19 18 13 11 12 15 19 19 17 15 11 6 2 1 5 10 12 14 17 18 18 19 20 20 21 22 23 24 25 25 25 25 26 27 28 29 29 29 29 31 32 32 31 29 28 26
15 15 16 13 11 13 15 15 13 9 8 13 14 10 8 8 9 14 17 14 10 8 9 13 15 16 15 13 11 8 5 3 4 5 8 14 16 17 19 20 19 19 18 19 20 22 22 23 23 24 25 25 26 26 25 26 29 32 33 34 34 33 33
15 14 13 11 10 11 13 13 12 9 7 11 12 9 5 4 4 8 13 13 9 7 7 8 10 12 12 11 10 9 8 6 4 3 1 5 9 13 15 16 18 18 18 18 18 19 21 22 22 22 23 24 24 23 23 25 28 30 31 32 32 31 31
13 12 10 9 10 11 9 10 10 9 8 9 8 6 4 2 2 4 6 7 5 4 5 5 7 8 9 8 8 7 6 5 5 4 3 2 2 5 8 10 13 15 16 17 18 18 19 20 21 21 21 21 21 20 21 25 28 29 29 29 29 28 27
11 11 10 9 10 10 8 7 8 8 9 8 5 3 2 2 4 5 6 4 4 3 3 5 7 7 7 6 6 5 5 5 4 4 3 4 4 4 4 5 8 10 11 13 15 16 16 16 17 18 19 19 19 18 21 24 26 27 27 27 27 27 26
9 9 9 7 6 6 5 4 6 8 8 6 4 3 2 2 3 5 4 3 4 4 5 8 10 9 8 6 5 5 5 5 5 6 5 6 6 5 4 5 6 6 6 7 10 12 13 14 14 14 14 14 15 17 20 22 23 24 25 25 26 27 27
6 8 7 5 3 3 2 3 7 9 7 4 4 3 2 2 3 3 2 2 4 6 8 9 9 9 8 8 7 7 6 6 7 7 7 7 8 7 6 6 6 6 7 8 9 10 11 11 11 11 10 10 10 11 14 16 17 18 20 22 24 25 27
6 7 6 2 0 0 2 4 7 7 3 1 1 1 2 2 2 2 1 3 4 6 6 6 6 7 9 9 9 8 8 8 8 8 9 9 10 10 9 9 8 8 9 9 10 10 11 10 9 8 8 7 6 7 9 12 13 12 13 16 19 22 23
7 7 5 2 2 2 2 4 4 2 1 2 3 4 4 3 3 2 3 5 5 6 6 5 6 7 9 10 9 9 9 9 8 9 10 10 11 12 12 12 11 10 10 11 11 10 10 9 8 8 8 8 7 7 8 10 11 11 10 10 12 15 16
7 6 4 2 3 3 1 2 2 1 2 4 5 5 5 5 4 4 5 5 5 5 6 7 7 8 9 10 10 9 9 8 8 7 7 7 8 9 10 10 10 11 11 10 9 8 8 8 9 10 10 10 10 11 13 14 15 13 11 10 10 11 12
4 3 2 1 2 2 2 1 2 3 4 5 6 6 6 5 5 5 5 5 4 5 8 9 9 9 9 9 9 8 8 9 9 8 8 7 6 6 5 5 6 9 11 9 7 8 9 10 11 13 15 15 16 17 20 21 21 20 17 15 14 13 13
4 3 2 1 1 2 3 3 4 4 5 6 6 6 5 4 4 4 4 4 4 6 7 7 9 10 10 10 9 7 7 6 7 7 8 8 7 7 6 6 7 9 10 9 9 11 13 15 17 19 20 22 23 25 27 27 26 25 23 21 19 19 18
5 4 3 3 3 4 5 5 5 5 5 4 5 6 6 5 4 4 4 5 6 6 7 8 10 11 11 11 9 7 5 6 7 8 9 10 10 10 10 11 11 12 12 12 12 13 16 19 21 22 24 27 29 29 30 29 27 24 24 24 23 23 23
5 5 4 4 4 4 4 5 5 4 3 4 6 6 6 6 6 5 7 7 7 7 8 9 10 11 11 10 8 7 8 10 11 11 12 13 15 15 15 15 15 16 18 18 18 19 20 22 24 25 27 30 30 27 25 26 27 26 25 25 24 23 24
6 6 4 4 3 3 4 3 2 3 5 7 7 6 6 7 6 6 7 7 7 8 8 9 9 10 10 10 9 9 11 12 13 14 15 16 17 18 20 20 19 19 20 22 23 24 23 23 24 24 24 26 27 26 25 26 26 25 24 25 24 24 24
6 4 2 2 3 3 2 2 4 5 7 8 9 8 8 8 7 6 7 7 7 8 9 10 11 12 11 11 11 11 12 13 14 16 17 18 18 19 19 21 22 22 22 21 21 22 22 22 22 21 20 21 23 25 26 24 21 21 24 25 25 25 24
Wind_Direction
191 193 191 190 192 190 194 200 192 184 183 184 187 185 183 188 194 198 202 207 210 206 201 202 204 202 204 206 203 201 202 204 198 190 192 200 203 205 204 207 209 208 211 209 203 199 199 198 195 194 197 194 196 198 196 201 202 196 198 203 200 195 200
189 189 187 190 192 189 193 199 196 189 184 185 188 184 182 187 190 193 198 202 207 207 203 204 205 203 204 206 206 204 202 206 205 198 195 199 204 206 204 204 206 206 207 204 202 202 202 201 196 197 200 195 197 200 194 197 201 198 201 205 201 200 206
187 185 184 191 196 192 194 197 198 197 191 190 191 187 185 189 192 196 198 201 204 204 204 206 207 205 205 206 208 207 205 206 208 205 200 201 204 206 205 203 204 207 205 200 201 202 203 203 197 199 202 197 198 201 195 196 200 200 203 204 200 203 209
181 180 179 191 199 196 197 196 195 195 192 194 197 192 187 189 194 196 200 205 205 203 204 207 209 209 207 207 209 209 206 206 209 209 206 205 205 205 208 207 204 206 205 201 201 203 207 208 203 203 201 197 201 203 199 199 200 201 203 201 198 202 207
97 142 167 186 190 186 190 197 198 196 194 198 203 200 194 195 198 197 200 205 205 204 205 205 208 211 210 210 211 211 209 208 209 209 208 208 206 205 209 211 206 205 205 202 201 206 214 216 212 210 204 201 205 204 200 203 204 202 204 203 199 200 204
72 96 148 186 186 180 189 199 200 196 198 202 205 205 202 201 202 203 205 207 206 205 204 204 205 209 212 212 212 213 212 210 210 209 208 209 209 208 209 211 209 208 206 202 200 205 213 219 219 216 209 207 211 208 203 207 209 206 206 206 203 203 206
67 85 119 181 187 181 182 187 187 187 195 202 205 207 206 204 203 205 208 207 205 205 204 204 204 205 208 211 213 216 215 212 211 210 208 208 211 210 207 209 213 212 207 205 204 204 209 217 224 226 218 211 215 216 211 209 211 212 210 210 210 208 208
62 73 86 110 128 152 166 175 184 187 193 199 202 203 202 202 202 205 207 206 205 205 204 203 203 203 204 206 211 216 217 216 213 212 211 208 208 209 206 208 215 213 207 208 210 209 209 214 222 230 225 216 216 220 220 216 215 216 214 212 214 213 212
63 69 79 84 75 107 145 166 184 190 193 198 199 197 195 195 199 203 206 205 204 204 205 204 203 203 201 200 206 210 212 219 219 215 214 208 204 208 209 210 214 215 211 211 216 217 215 216 222 229 230 224 220 220 224 224 222 223 222 217 217 216 217
66 74 86 104 100 104 123 140 161 176 185 190 191 193 195 194 196 201 203 203 203 204 205 204 202 201 198 197 202 205 206 215 220 217 215 210 204 207 212 212 213 217 217 214 217 223 224 222 223 228 231 229 225 222 224 229 229 231 232 228 223 220 219
71 84 96 106 108 111 120 129 136 145 159 170 174 180 189 193 197 198 197 198 202 206 209 206 202 202 200 196 200 204 205 210 214 212 211 209 206 206 212 215 215 219 221 217 217 223 228 229 228 230 232 232 230 227 225 231 235 236 238 238 234 229 224
74 85 99 105 102 104 113 123 129 133 140 150 156 159 164 180 196 200 199 202 206 212 222 222 213 209 207 203 203 205 206 210 214 213 209 207 205 204 207 213 218 223 225 221 217 219 226 233 234 234 235 236 235 233 230 232 237 239 241 242 241 239 234
82 82 93 106 104 99 104 112 121 127 130 134 139 144 149 161 179 186 190 199 206 214 230 236 223 215 213 211 212 211 211 213 215 215 214 211 206 204 203 206 215 224 230 230 223 218 222 231 239 240 241 243 242 239 236 234 237 241 243 244 244 243 244
88 82 84 92 96 95 98 103 111 119 123 124 127 130 135 143 149 150 153 165 184 201 216 220 218 220 219 217 218 219 220 220 217 215 217 215 210 208 207 205 210 218 227 234 234 228 221 224 234 241 244 247 248 247 245 241 240 241 243 246 246 244 246
91 84 80 80 79 80 84 88 97 111 118 121 122 123 125 131 137 141 148 162 173 179 188 193 194 207 225 228 225 225 226 226 223 220 220 218 212 210 211 211 211 215 222 229 234 237 232 224 228 236 241 245 248 249 249 248 246 244 243 245 246 245 246
98 93 87 80 77 77 77 75 77 84 93 108 121 126 130 132 134 134 133 144 153 143 147 167 162 150 186 218 219 222 226 226 224 221 218 215 213 212 213 215 214 218 227 229 226 229 231 226 225 231 239 244 246 248 248 250 253 251 248 247 247 246 245
100 97 94 88 83 81 78 75 74 73 71 72 82 108 130 127 121 121 114 124 145 139 135 162 163 152 157 186 194 203 213 217 218 218 216 213 211 213 217 218 216 219 229 231 224 224 226 224 222 227 236 244 248 251 251 252 257 261 259 256 252 250 248
105 100 96 92 85 79 77 77 78 79 75 69 68 76 88 91 91 93 91 93 117 155 169 170 168 172 187 199 191 188 194 202 209 214 218 217 216 217 218 217 218 222 228 229 225 224 224 223 221 224 230 237 243 248 252 256 263 268 269 269 264 260 257
109 104 98 94 90 82 77 73 73 78 82 79 74 71 71 78 87 91 90 87 85 88 165 191 190 191 197 207 219 214 200 199 205 208 214 218 220 223 222 220 221 224 228 229 227 225 224 222 223 224 227 229 232 238 244 251 259 265 270 274 275 272 268
106 104 98 94 92 88 83 78 72 70 72 76 79 78 74 75 83 87 84 81 81 83 85 116 197 212 207 210 226 230 218 211 212 211 212 215 218 222 224 225 226 228 230 231 230 229 227 225 226 226 227 228 229 230 234 240 250 258 264 270 275 277 275
108 108 104 100 96 91 86 84 81 74 67 64 68 77 82 81 80 80 76 68 70 82 87 86 95 147 193 206 222 230 223 218 222 221 218 220 222 224 225 224 226 229 232 232 231 231 230 230 231 231 229 229 231 233 234 238 246 254 261 267 272 274 274
108 113 114 111 107 103 93 82 79 80 77 68 58 55 64 77 83 82 78 69 63 72 83 84 83 87 102 154 200 224 229 227 230 231 229 228 227 229 231 230 229 229 231 233 234 234 233 233 234 234 234 233 233 235 236 239 246 251 254 258 262 266 270
106 110 112 108 106 108 101 85 76 80 87 80 69 57 57 70 86 89 85 75 58 61 75 82 84 88 88 91 113 154 236 238 238 243 246 244 241 240 239 238 236 236 236 237 238 239 239 240 239 238 237 236 237 239 240 242 245 248 250 253 255 256 261
110 111 112 106 101 104 103 90 78 75 85 81 73 71 73 75 89 98 94 83 62 46 60 73 78 83 84 81 82 84 88 128 216 244 249 246 248 250 248 247 247 248 249 248 246 247 247 247 247 246 243 242 241 242 244 246 246 245 247 249 249 250 253
105 107 112 109 96 95 102 102 87 70 78 86 75 69 81 84 84 96 99 97 85 53 41 51 58 64 68 68 70 76 85 98 109 105 174 230 237 239 242 246 250 252 254 255 254 253 250 249 250 250 249 248 246 245 246 247 245 245 246 248 250 255 257
100 93 91 96 98 98 109 119 104 79 75 84 78 66 64 45 0 34 67 88 92 64 34 20 23 35 41 45 51 58 61 67 77 80 61 9 277 247 242 241 242 246 250 253 254 254 253 252 252 252 252 252 251 252 252 250 249 248 247 248 254 261 265
104 87 78 92 109 111 113 120 114 95 81 78 87 95 70 359 343 7 23 29 34 39 10 345 349 358 5 14 25 33 33 28 25 27 16 1 347 322 295 273 260 253 253 255 255 254 256 257 255 252 253 254 255 258 258 256 256 255 253 254 258 261 264
117 97 84 88 111 113 104 102 101 92 80 72 89 109 91 13 4 22 26 7 355 351 333 333 337 336 335 339 344 349 356 351 344 343 338 335 333 326 315 310 299 283 278 282 276 267 262 263 262 260 258 257 260 263 263 263 265 264 262 262 262 263 264
125 111 98 80 88 98 61 59 83 84 78 77 87 92 82 65 56 55 46 339 329 332 334 339 343 336 328 324 322 321 321 317 318 321 319 318 322 320 315 312 305 296 299 305 303 295 289 284 283 282 277 271 270 271 271 271 271 268 265 261 259 260 262
123 123 119 92 50 22 20 56 84 88 92 121 84 14 1 29 47 57 13 329 337 350 351 348 343 333 326 324 325 324 316 307 303 303 304 305 307 311 316 318 314 312 315 316 311 305 304 301 299 297 289 282 279 273 274 279 282 283 277 265 256 256 259
139 136 132 158 255 284 19 80 99 111 230 257 281 298 315 332 342 350 333 333 1 18 1 336 324 321 322 328 336 338 329 320 310 303 303 305 306 306 308 312 319 327 330 329 323 315 311 310 311 308 301 296 290 282 284 295 304 307 301 281 261 254 256
157 165 171 209 264 300 1 125 152 242 277 287 294 300 312 318 323 332 331 340 11 9 328 313 314 318 323 331 340 344 342 338 333 324 322 326 327 323 317 318 327 331 329 327 320 311 307 309 309 305 297 290 288 292 301 309 312 312 308 297 280 266 261
158 181 199 234 292 311 312 295 291 297 308 315 317 321 325 326 333 341 339 345 347 321 311 316 319 320 323 330 337 344 350 354 355 350 342 335 330 327 324 323 317 308 309 312 304 286 279 278 283 286 285 282 284 291 300 305 307 306 305 302 299 293 286
151 138 126 144 237 285 305 316 313 315 327 332 327 325 324 326 334 338 334 333 321 311 315 318 314 313 317 324 332 341 346 344 336 324 313 302 294 291 289 284 274 269 273 279 280 278 277 275 275 278 281 284 288 293 297 300 304 306 305 301 299 296 292
158 140 145 177 224 273 301 324 340 354 3 348 327 320 313 305 305 307 301 295 291 297 304 307 309 313 318 323 330 334 316 291 282 281 279 276 273 268 264 263 264 267 268 265 263 268 275 277 278 282 286 290 293 296 297 298 300 303 304 302 300 296 291
167 166 186 219 255 297 337 5 13 11 353 325 322 327 326 322 319 311 302 299 300 308 318 322 323 326 327 327 328 320 300 289 286 282 278 275 276 276 270 264 259 261 265 266 264 266 269 273 277 283 287 289 290 291 293 295 297 299 298 299 299 298 296
185 190 219 268 318 19 40 31 340 304 305 311 317 323 326 326 324 318 317 326 334 335 332 324 318 318 319 319 317 311 308 306 304 301 297 295 296 296 293 288 278 269 266 267 269 271 273 273 275 276 278 282 286 289 290 293 296 296 294 293 294 296 298
190 207 256 341 32 51 37 303 284 290 301 306 312 320 320 319 326 334 335 341 343 333 323 316 312 310 311 311 310 311 314 315 314 312 312 313 313 311 308 304 298 292 287 283 281 282 282 283 284 283 282 283 286 288 289 289 289 291 294 294 293 293 295